{"data":{"norad_id":59437,"intl_designator":"2024-065S","name":"STARLINK-31706","alt_names":[],"object_type":"PAYLOAD","status":"ACTIVE","operator":null,"country":"US","launch_date":"2024-04-07","launch_site_code":"AFWTR","launch_vehicle":null,"mission":null,"orbit_class":"UNKNOWN","rcs_meters":null,"size_class":null,"mass_kg":null,"dimensions":null,"purposes":["comms"],"wikipedia_slug":null,"has_3d_model":false,"image_url":null,"decayed_at":null,"tle_current":{"epoch":"2026-09-21T20:08:05.125344Z","epoch_age_seconds":49264,"freshness":"FRESH","line1":"1 59437U 24065S   26264.83894821  .00000311  00000+0  20342-4 0  9997","line2":"2 59437  53.1613  91.0987 0001462  74.1292 285.9872 15.34385267138952","mean_motion":15.34385267,"eccentricity":0.0001462,"inclination_deg":53.1613,"raan_deg":91.0987,"arg_perigee_deg":74.1292,"mean_anomaly_deg":285.9872,"bstar":2.0342e-5,"rev_number":13895,"period_min":93.848659197273,"perigee_km":461.74689289312,"apogee_km":463.74716738354,"semimajor_km":6840.8840301383,"source":"CELESTRAK","updated_at":"2026-09-22T09:00:48.941928Z"}}}